Terug naar catalogus

CZ-6A DEB

ActiefSSO
NORAD 55892·DEBRIS·🇨🇳 China

Gelanceerd Nov 11, 2022 vanaf Taiyuan Satellite Launch Center

Loading…

Volgende Passages (komende 24 uur)

TLE

VerouderendSource: Space-Track

Epoch: Sep 3, 2026, 20:59 UTC

1 55892U 22151AAQ 26246.87499672  .00001046  00000-0  69108-3 0  9990
2 55892  98.8593 212.2072 0126018 217.5829 141.6479 14.00008549188685

Volg CZ-6A DEB in realtime met AllMySat

Download on the App Store